Following observations were included, but something wrong.

    CK02T070  C2004 12 14.68856 11 31 50.82 -16 57 11.4 4W4E1E5  13.7 Rr     E12

    CK02T070  C2004 12 14.69701 11 31 50.60 -16 57 12.9 4W4E1E5  13.7 Rr     E12

    CK02T070  C2004 12 14.70535 11 31 50.33 -16 57 14.3 4W4E1E5  13.7 Rr     E12

    CK02T070  C2004 12 14.71369 11 31 50.07 -16 57 15.1 4W4E1E5  13.6 Rr     E12

    CK02T070  C2005 03 13.21270 09 53 29.37 -10 32 55.1 5E27BBA  13.8  r     703

    CK02T070  C2005 03 13.21913 09 53 29.06 -10 32 51.7 5E27BBA  13.8  r     703

    CK02T070  C2005 03 13.22556 09 53 28.47 -10 32 47.1 5E27BBA  13.7  r     703

    CK02T070  C2005 03 13.23200 09 53 27.75 -10 32 42.7 5E27BBA  13.7  r     703



    C/2002 T7 (LINEAR)

Epoch 2004 Apr. 25.0 TT = JDT 2453120.5  

T 2004 Apr. 23.06030 TT                                 Nakano

q   0.6145960            (2000.0)            P               Q

z  -0.0007702      Peri.  157.73274     +0.43444611     -0.83757533

 +/-0.0000004      Node    94.85691     -0.86836028     -0.29183449

e   1.0004733      Incl.  160.58306     -0.23917985     -0.46184434

From 4299 observations 2002 Oct. 12-2006 Mar. 7, mean residual 0".63.

   Nongravitational parameters A1 = +1.14 +/- 0.01, A2 = +0.1049 +/- 0.0036,

   A3 = -0.20 +/- 0.00.

   (1/a)org.= +0.000010, (1/a)fut.= -0.000665 (+/-0.000000), Q= 9.

Residuals in seconds of arc 

2002/                     030821 017  0.5-  0.5+    031230 213  0.2+  0.3-  

021012 704  0.7+  1.1+    030822 349  0.2+  0.1+    031230 213  0.1+  0.3-  

021012 704  0.3+  0.1+    030822 349  0.6-  0.1-    031230 619  1.5+  0.2+  

021012 704  1.0+  0.8+    030822 349  0.1+  0.7-    031230 619  1.4+  0.0   

021012 704  0.9+  0.3+    030823 235  0.3+  0.5+    031230 619  1.6+  0.3-  

021012 704  0.3+  0.7+    030823 A46  0.4-  0.4+    031231 H41  0.6+  0.3-  

021014 704  0.4+  0.1+    030823 A46  0.3-  0.4+    031231 859  0.8+  0.8+  

021014 704  0.5+  0.5+    030823 A46  0.1-  0.1+    031231 H41  0.7+  0.3-  

021014 704  0.8+  0.2+    030823 A46  0.3-  0.2+    031231 859  0.3-  0.1-  

021014 704  0.3+  0.2+    030823 A46  0.0   0.0     031231 859  0.4-  0.3-  

021016 649  0.5+  0.0     030823 A46  0.3-  0.4+    031231 H41  0.5+  0.2-  

021016 649  0.5+  0.1+    030823 349  0.1-  0.0     031231 H41  0.7+  0.2-  

021016 413  0.9+  0.2+    030823 349  0.2+  0.2-    031231 A32  0.1-  0.3-  

021016 413  1.0+  0.2+    030823 349  0.1-  0.1-    031231 A32  0.1-  0.1-  

021016 413  0.5+  0.1-    030823 349  0.0   0.1+    031231 A32  0.2-  0.2-  

021017 468  0.6+  0.2-    030823 349  0.1-  0.1+    031231 A32  0.1-  0.3-  

021017 468  0.4+  0.2+    030824 A46  0.1-  0.1+    031231 A32  0.1-  0.2-  

021017 413  0.8+  0.0     030824 A46  0.1-  0.1+    2004/                   

021017 413  1.1+  0.4+    030824 A46  0.2-  0.1+    040101 379  0.2-  0.2+  

021017 413  0.8+  0.0     030824 A46  0.3-  0.0     040101 379  0.5+  0.8-  

021018 734  0.3+  0.8-    030824 A46  0.3-  0.1+    040101 379  0.3+  0.5-  

021018 734  0.1-  2.0+    030824 A46  0.3-  0.4+    040101 379  0.3+  0.0   

021018 J95  1.1+  0.2-    030824 921  0.3+  0.1-    040101 372  0.9+  0.1-  

021018 J95  0.7+  0.2+    030824 921 (3.1+  1.6-)   040101 174  0.8+  0.0   

021018 J95  0.4+  0.0     030824 921  0.2-  0.2+    040101 174  0.9+  0.1+  

021018 J95  0.2-  0.6+    030824 921  0.7+  0.4+    040101 174  0.9+  0.2+  

021018 J95  1.7+  0.3-    030825 A32  0.2-  0.6+    040101 213  0.2+  0.2-  

021019 J95  0.5+  0.2+    030825 A32  0.2-  0.6+    040101 213  0.1+  0.1-  

021019 J95  0.7+  0.1+    030825 A32  0.1-  0.5+    040101 213  0.4+  0.5-  

021019 J95  1.1+  0.1+    030825 A46  0.0   0.0     040102 213  0.0   0.3-  

021019 J95  0.2+  0.4-    030825 A46  0.1+  0.2+    040102 213  0.2-  0.3-  

021019 966  0.0   0.1+    030825 A46  0.1+  0.1+    040102 213  1.1+  0.9-  

021019 966  0.0   0.3+    030825 A46  0.0   0.0     040102 939  0.3+  0.4-  

021020 941  0.5-  1.1+    030825 A46  0.2-  0.2+    040102 939  0.3+  0.0   

021020 941  0.2-  1.2+    030825 A46  0.3-  0.3+    040102 939  0.3+  0.2+  

021020 941  0.0   1.1+    030827 235  1.2-  0.4+    040103 379  0.4+  0.4-  

021020 118  0.3+  0.4+    030827 A46  0.4-  0.3+    040103 379  0.5-  0.2+  

021020 941  0.1-  1.0+    030827 A46  0.1-  0.3+    040103 349  0.3+  0.3-  

021020 941  0.1+  0.9+    030827 A46  0.3-  0.5+    040103 349  0.2+  0.3-  

021020 118  0.7+  0.4+    030827 A46  0.0   0.4+    040103 349  0.4+  0.3-  

021020 118  0.3+  0.5+    030827 A46  0.0   0.5+    040103 349  0.2+  0.3-  

021020 118  0.3+  0.2+    030827 A46  0.1-  0.3+    040103 143  0.4+  0.3-  

021020 620  1.9+  1.1+    030827 213  0.5-  0.2+    040103 143  0.2+  0.2-  

021020 620  1.3+  1.5+    030827 213  0.3-  0.2+    040103 143  0.2+  0.6-  

021020 620  0.3+  0.0     030827 213  0.4-  0.1+    040103 143  0.1+  0.4-  

021020 620  0.1+  0.7+    030827 048  0.1-  0.4+    040103 143  0.0   0.2-  

021020 620  0.8+  1.2+    030827 048  0.3-  0.2+    040103 235  2.0+  0.3+  

021020 620  0.7+  1.0+    030827 048  0.2-  0.2+    040103 048  0.8+  0.3-  

021020 649  0.4+  0.1+    030827 048  0.2-  0.1+    040103 048  0.4+  0.6-  

021020 649  0.5+  0.2+    030827 048  0.3-  0.2+    040103 048  0.7+  0.0   

021020 670  0.6+  0.7+    030828 704 (3.0-  5.4-)   040103 048  0.4+  0.2-  

021020 670  0.9+  0.0     030828 704  0.1-  0.4-    040103 048  0.1+  0.2-  

021023 J95  0.7+  0.2+    030828 704  0.9-  0.1+    040103 213  0.5+  0.4-  

021023 J95  0.3+  0.0     030828 704 (3.7+  5.5+)   040103 213  0.2+  0.7-  

021023 J95  0.1+  0.1-    030830 939  0.4-  0.6+    040103 213  0.2-  1.2-  

021023 850  0.6+  0.1-    030830 939  0.4-  0.6+    040103 445  0.5+  0.2-  

021023 850  0.4+  0.4-    030830 939  0.4-  0.7+    040103 445  0.3+  0.2-  

021023 850  0.4+  0.1+    030830 232  0.3-  1.4+    040103 445  0.5+  0.2-  

021026 176  1.1+  0.6+    030830 232  0.4-  1.4+    040103 445  0.4+  0.1-  

021026 176  0.8+  0.1+    030830 232  0.3-  1.3+    040103 445  0.4+  0.0   

021026 176  0.1+  0.6-    030831 235  0.7-  0.5-    040104 213  1.4+  0.6-  

021026 176  0.1+  0.7-    030831 445  0.1-  0.2+    040104 213  0.6+  0.3-  

021026 J95  0.1-  0.2+    030831 445  0.4-  0.1+    040104 213  0.0   0.1-  

021026 J95  0.9-  0.8-    030831 445  0.8-  0.7+    040104 J97  0.5+  0.1-  

021026 587  0.1-  0.2-    030831 445  1.2-  0.0     040104 J97  0.4+  0.0   

021026 587  0.1+  0.3-    030831 379  0.5+  0.0     040104 J97  0.4+  0.1+  

021027 704  0.2+  0.2-    030831 379  0.6+  0.5-    040105 048  0.3+  0.3-  

021027 704  0.2-  0.2-    030831 379  1.0-  0.7+    040105 048  0.2+  0.0   

021027 704  0.2-  0.1+    030902 143  0.3-  0.3+    040105 048  0.2+  0.4-  

021027 J95  0.3+  0.1+    030902 143  0.4-  0.8+    040105 048  0.4+  0.6-  

021028 J95  0.5+  0.2-    030902 143  0.2-  0.4+    040105 048  0.3+  0.6-  

021028 J95  0.5+  0.1+    030903 379  0.1+  0.7+    040105 213  0.0   0.4-  

021028 926  0.2+  0.5+    030903 379  0.2-  0.5+    040105 213  0.0   0.1-  

021028 926  0.2+  0.4-    030904 235  1.4+  0.6-    040105 213  0.1-  0.2-  

021028 926  0.9+  0.3-    030904 349  0.5+  0.1+    040105 A46  0.0   0.4-  

021028 670  0.6+  0.3-    030904 349  0.1-  0.3+    040105 A46  0.2-  0.2-  

021028 670  0.8+  0.9-    030904 349  0.0   0.1+    040105 A46  0.1-  0.3-  

021029 118  0.4+  0.0     030904 349  0.3+  0.4+    040105 A46  0.1+  0.3-  

021029 118  0.4+  0.0     030905 H41  1.1+  1.2+    040105 A46  0.1-  0.3-  

021029 118  0.4+  0.2-    030905 H41  0.9+  1.2+    040105 A46  0.2+  0.1-  

021029 118  0.5+  0.3+    030905 379  0.4-  0.2-    040105 204  0.0   0.1-  

021029 854  0.2+  0.2-    030905 379  0.1+  0.1+    040105 204  0.1+  0.1-  

021029 854  0.4+  0.2-    030905 379  0.3-  0.2-    040105 204  0.4+  0.0   

021029 854  0.5+  0.1+    030905 379  0.2+  0.4-    040105 204  0.1+  0.1+  

021029 696  0.4+  0.1+    030905 349  0.3-  0.3+    040105 204  0.1+  0.0   

021029 696  0.7+  0.0     030905 379  0.2-  0.3+    040106 379  0.5+  0.3+  

021029 704  0.3+  0.1-    030905 379  0.2+  0.1+    040106 379  0.0   0.2+  

021029 704  0.4+  0.0     030905 349  0.4-  0.3+    040106 379  0.1-  0.4-  

021029 704  0.2-  0.3-    030905 349  0.4-  0.2+    040107 H41  0.4+  0.1-  

021029 704  0.0   0.4-    030905 349  0.3-  0.2+    040107 H41  0.2-  0.1-  

021029 704  0.4+  0.2-    030905 300  0.2-  0.9+    040107 H41  0.3+  0.8+  

021029 704  0.5-  0.2-    030905 300  0.8-  1.6+    040107 H41  1.3+  0.8+  

021029 926  0.7+  0.0     030905 300  0.1-  0.3-    040107 379  0.5+  0.0   

021029 704  0.2+  0.5-    030906 A46  0.1-  0.0     040107 379  0.1-  0.2+  

021029 704  0.4-  0.3-    030906 A46  0.0   0.4+    040107 379  0.7+  0.5-  

021029 926  0.4+  0.3+    030906 A46  0.1-  0.3+    040107 A03  0.3+  0.1-  

021029 704  0.3-  0.0     030906 A46  0.4-  0.1+    040107 A03  0.3+  0.1-  

021029 926  0.0   0.0     030906 A46  0.5-  0.1+    040108 750  0.2-  0.2-  

021029 213  0.2-  0.4+    030906 A46  0.2-  0.1+    040108 750  0.1-  0.3-  

021029 213  0.4+  0.7-    030906 A32  0.4-  0.9+    040108 750  0.1-  0.2-  

021029 213  0.3-  1.0-    030906 A32  0.3-  0.8+    040108 750  0.1-  0.3-  

021029 213  0.4-  1.1-    030906 A32  0.4-  0.8+    040108 750  0.1-  0.3-  

021030 349  0.6-  0.0     030906 379  0.3-  0.2+    040108 750  0.2-  0.2-  

021030 349  0.5-  0.3+    030906 379  0.0   0.2+    040108 379  0.9+  0.5-  

021030 349  0.6-  0.2+    030906 379  0.2-  0.1-    040108 379  0.5+  0.4-  

021030 349  1.1-  0.2+    030906 379  0.3-  0.3+    040108 355  1.0+  0.1+  

021031 118  0.4+  0.1-    030906 372  0.1+  0.8-    040108 355  0.7+  0.1-  

021031 118  0.3+  0.2-    030907 A46  0.3-  0.4+    040108 355  0.8+  0.1-  

021031 118  0.5+  0.2+    030907 A46  0.3-  0.2+    040108 355  0.4+  0.1-  

021031 921 (1.2-  5.4+)   030907 A46  0.1-  0.1+    040108 J95  0.5+  0.4-  

